Showing default

LARES, 38077

Orbit data source: Space-Track

LARES, 38077 is a payload satellite owned by ASI (IT) in LEO that was launched on Mon, 13 Feb 2012 UTC via a VEGA launch vehicle from the French Guiana (FRGUI). Payload-class satellites include a variety of spacecraft equipped with specific instruments for various scientific and technological missions. These include communications satellites like Starlink; space stations such as the ISS; scientific satellites like the Hubble; Earth observation satellites from companies like Planet Labs, Umbra, and HawkEye 360; GPS; miniature CubeSats for education and research; and military/defense satellites.

Loading next visibility...
Identifier
38077, 2012-006A
Orbit
LEO
Country
Flag of ITIT
Related business
Manufacturer
CGS
Mission
Operational Civil Technology
Bus & Motor
LARES, Unknown motor
Mass
400 kg wet, 400 kg dry
Launch date (UTC)
2012-02-13 (14 years ago)
Launch vehicle
VEGA
Launch site
French Guiana (FRGUI)
Object type
Payload
Rocket body
Debris
Shape & HBR
Sphere, 0.2 m
Radar Cross Section
0.126 m², Small (<0.1 m²)

Expand to show TLE details & history
Last TLE update: 20 hours ago

TLE from 20 hours ago
0 LARES
1 38077U 12006A   25312.83508552 -.00000040  00000-0 -87145-5 0  9999
2 38077  69.4903 308.6279 0011353 254.3362 105.6412 12.54932064629429
Epoch: 2025-11-08T20:02Z
TLE epoch observation values (Epoch: 2025-11-08T20:02:31.388Z)
Latitude
-0.00004°
Longitude
-40.2619°
Altitude
1,448.458 km
Speed
7.137 km/s
True Right ascension
20h 34m 30s
True Declination
0° 00' 00"
Sunlit
Object was in daylight at epoch
Visualization orbit readout
Latitude
Unknown
Longitude
Unknown
Altitude
Unknown
Speed
Unknown
Apparent Right ascension
Unknown
Apparent Declination
Unknown
Sunlit
N/A
Visualization observer readout
Local Sidereal Time
12:32:37
Azimuth
Unknown
Elevation
Unknown
Doppler factor
Unknown
Orbital elements
Apogee altitude
1,451.038 km
Perigee altitude
1,433.281 km
Semi-major axis
7,820.297 km
Eccentricity
0.00114
Inclination
69.4903°
RAAN
308.6279°
Arg. of periapsis
254.3362°
True anomaly
105.76643°
Mean anomaly
105.6412°
Eccentric anomaly
105.70382°
Mean motion
3.1384 °/min
Orbital period
114.71 mins
BSTAR
-0.0000087145
Loading maneuver chart data...
Computing Atmospheric mass density...
Loading historical data...
Loading historical data...
Loading historical data...
Loading historical data...
Loading historical data...
Loading historical data...
Loading historical data...

Documentation

Showing up to 5 results
|